Location: Prague
(50.0830°N, 14.4670°E)
Time: 08:44:18
(UTC+01:00)

XW-2F - Pass Details

Date: 03 December 2021
Orbit: 494 x 515 km, 97.5° (Epoch: 18 January)

Event Time Altitude Azimuth Distance (km) Brightness Sun altitude
Rises 05:10:51 0° 30° (NNE) 2,655 ? -23.3°
Reaches altitude 10° 05:13:49 10° 55° (NE) 1,760 ? -22.8°
Maximum altitude 05:15:55 14° 89° (E) 1,500 ? -22.4°
Drops below altitude 10° 05:18:01 10° 123° (ESE) 1,749 ? -22.1°
Sets 05:20:56 0° 149° (SSE) 2,627 ? -21.6°
